Skip Page Navigation
NASA JPL Caltech
NASA Logo - Jet Propulsion Laboratory + View the NASA Portal
+ Center for Near-Earth Object Studies
JPL Home Earth Solar System Stars & Galaxies Technology
JPL Solar System Dynamics
BODIES ORBITS EPHEMERIDES TOOLS PHYSICAL DATA DISCOVERY FAQ SITE MAP
IMPORTANT: The SSD Announcement email list is now available. Major changes are coming in the near future, including possible hostname and/or URL changes. To be notified of such changes, subscribe to this email list.

Please visit this page for more details.


JPL Small-Body Database Browser
Search: [ help ]  
423338 (2005 GH69)
Classification: Main-belt Asteroid          SPK-ID: 2423338
Ephemeris | Orbit Diagram | Orbital Elements | Mission Design | Physical Parameters | Discovery Circumstances ]

[ show orbit diagram ]
Orbital Elements at Epoch 2459000.5 (2020-May-31.0) TDB
Reference: JPL 18 (heliocentric ecliptic J2000)
 Element Value Uncertainty (1-sigma)   Units 
e .1635328975823389 6.1394e-08  
a 2.274293754744805 3.0531e-08 au
q 1.902371907077969 1.3099e-07 au
i 24.99149987518918 5.9338e-06 deg
node 171.0259413612705 1.7025e-05 deg
peri 353.0631977224132 3.171e-05 deg
M 177.8652791412729 2.8975e-05 deg
tp 2458381.548039977664
(2018-Sep-20.04803998)
9.3654e-05 TDB
period 1252.761116075161
3.43
2.5226e-05
6.907e-08
d
yr
n .2873652409709702 5.7866e-09 deg/d
Q 2.64621560241164 3.5524e-08 au
  Orbit Determination Parameters
   # obs. used (total)      126  
   data-arc span      5252 days (14.38 yr)  
   first obs. used      2005-04-02  
   last obs. used      2019-08-19  
   planetary ephem.      DE431  
   SB-pert. ephem.      SB431-N16  
   condition code      0  
   norm. resid. RMS      .67579  
   source      ORB  
   producer      Otto Matic  
   solution date      2019-Sep-24 07:30:09  

Additional Information
 Earth MOID = .910278 au 
 Jupiter MOID = 2.32824 au 
 T_jup = 3.470 
[ show covariance matrix ]

Ephemeris | Orbit Diagram | Orbital Elements | Mission Design | Physical Parameters | Discovery Circumstances ]

Physical Parameter Table
Parameter Symbol Value Units Sigma Reference Notes
absolute magnitude H 17.1   n/a MPO427995  

423338 (2005 GH69)          Discovered 2005-Apr-02 by CSS at Catalina
Reference: Last Updated: 2015-02-04

Alternate Designations
 2005 GH69 = 2012 HF84 
Ephemeris | Orbit Diagram | Orbital Elements | Mission Design | Physical Parameters | Discovery Circumstances ]
ABOUT SSD CREDITS/AWARDS PRIVACY/COPYRIGHT GLOSSARY LINKS
FirstGov 2020-Feb-23 11:25 UT
(server date/time)  
NASA Home Page
Site Manager:   Ryan S. Park
Webmaster  Alan B. Chamberlin